Total_Precipitation_Accumulation
0.23 0.25 0.28 0.25 0.25 0.26 0.29 0.41 0.57 0.40 0.10 0.02 0.04 0.06 0.10 0.15 0.20 0.20 0.22 0.23 0.26 0.31 0.35 0.37 0.40 0.52 0.81 1.39 2.33 3.29 3.43 2.68 1.77 1.18 1.00 1.21 1.44 1.71
0.28 0.31 0.33 0.35 0.35 0.33 0.33 0.36 0.45 0.52 0.30 0.05 0.04 0.08 0.13 0.16 0.22 0.20 0.22 0.25 0.24 0.25 0.28 0.31 0.34 0.43 0.60 0.88 1.44 2.30 3.12 3.27 2.67 1.87 1.37 1.28 1.39 1.56
0.31 0.38 0.42 0.45 0.50 0.48 0.45 0.42 0.39 0.44 0.41 0.10 0.03 0.05 0.14 0.20 0.21 0.21 0.23 0.22 0.19 0.20 0.23 0.26 0.30 0.37 0.49 0.68 0.97 1.51 2.29 2.95 3.10 2.64 2.10 1.69 1.51 1.44
0.41 0.43 0.46 0.49 0.55 0.57 0.59 0.53 0.43 0.36 0.39 0.24 0.06 0.05 0.10 0.21 0.26 0.26 0.25 0.23 0.20 0.20 0.23 0.25 0.27 0.32 0.41 0.54 0.73 1.02 1.59 2.23 2.75 2.84 2.52 2.04 1.71 1.63
0.67 0.67 0.62 0.58 0.59 0.59 0.62 0.59 0.50 0.39 0.35 0.31 0.16 0.08 0.10 0.20 0.32 0.35 0.31 0.27 0.23 0.22 0.23 0.25 0.26 0.29 0.33 0.41 0.55 0.74 1.01 1.43 1.91 2.48 2.68 2.41 2.01 1.80
0.74 0.79 0.79 0.81 0.76 0.71 0.69 0.64 0.58 0.52 0.43 0.38 0.27 0.17 0.14 0.20 0.35 0.43 0.38 0.32 0.28 0.26 0.25 0.24 0.26 0.27 0.28 0.27 0.30 0.45 0.69 1.06 1.49 1.97 2.44 2.52 2.23 1.96
0.52 0.56 0.66 0.81 0.88 0.91 0.93 0.83 0.76 0.75 0.63 0.52 0.42 0.32 0.25 0.28 0.40 0.47 0.51 0.45 0.38 0.34 0.32 0.26 0.24 0.22 0.22 0.24 0.29 0.36 0.50 0.68 0.97 1.39 1.84 2.19 2.24 2.07
0.35 0.34 0.37 0.52 0.63 0.71 0.81 0.81 0.84 0.94 0.95 0.81 0.61 0.47 0.35 0.35 0.41 0.52 0.61 0.63 0.54 0.41 0.40 0.38 0.34 0.30 0.25 0.22 0.24 0.27 0.34 0.48 0.64 0.91 1.27 1.67 1.92 2.04
0.20 0.19 0.20 0.30 0.39 0.43 0.51 0.55 0.61 0.74 0.92 0.98 0.89 0.67 0.50 0.39 0.46 0.54 0.59 0.66 0.62 0.55 0.55 0.61 0.57 0.46 0.37 0.33 0.33 0.29 0.29 0.35 0.46 0.62 0.86 1.22 1.55 1.77
0.14 0.12 0.10 0.15 0.28 0.38 0.46 0.47 0.47 0.58 0.82 0.99 1.09 1.00 0.80 0.65 0.67 0.74 0.76 0.69 0.67 0.74 0.76 0.86 0.85 0.69 0.58 0.47 0.40 0.32 0.30 0.31 0.37 0.47 0.62 0.88 1.22 1.49
0.13 0.14 0.09 0.07 0.21 0.29 0.28 0.26 0.27 0.39 0.55 0.76 0.85 0.85 0.81 0.79 0.80 0.86 0.86 0.78 0.87 1.01 1.00 1.03 1.11 1.01 0.87 0.77 0.60 0.45 0.36 0.33 0.35 0.42 0.49 0.64 0.92 1.29
0.08 0.10 0.13 0.14 0.20 0.19 0.13 0.14 0.21 0.29 0.32 0.36 0.42 0.46 0.50 0.55 0.67 0.84 0.97 0.96 1.04 1.25 1.18 1.06 1.23 1.26 1.30 1.15 0.83 0.54 0.43 0.44 0.43 0.43 0.47 0.54 0.73 1.01
0.09 0.10 0.11 0.14 0.14 0.11 0.08 0.09 0.20 0.21 0.18 0.23 0.29 0.34 0.42 0.51 0.63 0.79 0.96 1.06 1.10 1.22 1.17 1.06 1.22 1.19 1.21 1.30 1.12 0.79 0.49 0.44 0.46 0.53 0.57 0.58 0.64 0.71
0.10 0.09 0.10 0.09 0.07 0.05 0.04 0.06 0.07 0.06 0.07 0.13 0.18 0.25 0.35 0.48 0.62 0.78 0.92 1.02 1.08 1.15 1.09 0.97 1.13 1.10 0.96 0.98 1.10 1.05 0.76 0.54 0.44 0.45 0.53 0.71 0.78 0.74
0.18 0.14 0.06 0.03 0.02 0.01 0.01 0.02 0.01 0.02 0.05 0.09 0.14 0.21 0.32 0.45 0.52 0.60 0.72 0.86 0.94 1.03 1.06 0.99 1.05 1.12 0.99 0.88 0.87 0.91 0.90 0.80 0.57 0.48 0.52 0.58 0.65 0.69
0.13 0.09 0.02 0.01 0.00 0.00 0.00 0.00 0.00 0.02 0.05 0.08 0.13 0.17 0.21 0.30 0.40 0.53 0.64 0.76 0.86 0.97 1.07 1.13 1.19 1.28 1.18 1.00 0.86 0.80 0.74 0.83 0.73 0.54 0.52 0.59 0.59 0.52
0.09 0.02 0.00 0.00 0.00 0.00 0.00 0.00 0.00 0.01 0.02 0.04 0.08 0.12 0.16 0.24 0.34 0.46 0.61 0.71 0.83 0.96 1.10 1.28 1.36 1.38 1.42 1.35 1.17 0.92 0.72 0.66 0.65 0.54 0.53 0.66 0.75 0.63
0.05 0.02 0.01 0.01 0.01 0.01 0.01 0.01 0.00 0.01 0.02 0.03 0.06 0.10 0.16 0.24 0.31 0.39 0.52 0.67 0.80 0.91 1.02 1.21 1.36 1.40 1.57 1.73 1.59 1.16 0.84 0.73 0.71 0.62 0.54 0.59 0.80 0.77
0.01 0.01 0.01 0.02 0.02 0.02 0.02 0.01 0.01 0.01 0.01 0.03 0.05 0.08 0.12 0.18 0.25 0.33 0.43 0.56 0.72 0.86 0.97 1.07 1.20 1.30 1.42 1.69 1.89 1.52 1.04 0.84 0.82 0.83 0.73 0.59 0.64 0.74
0.01 0.02 0.03 0.03 0.03 0.03 0.03 0.02 0.02 0.01 0.01 0.02 0.03 0.05 0.09 0.15 0.21 0.28 0.36 0.50 0.63 0.76 0.88 0.98 1.12 1.23 1.23 1.27 1.43 1.62 1.47 1.05 0.84 0.88 0.89 0.81 0.80 0.91
0.02 0.03 0.03 0.04 0.04 0.04 0.03 0.02 0.02 0.02 0.02 0.02 0.02 0.03 0.07 0.11 0.17 0.23 0.31 0.41 0.52 0.64 0.75 0.90 1.06 1.15 1.20 1.11 1.09 1.29 1.51 1.49 1.07 0.79 0.77 0.81 0.95 1.02
0.03 0.04 0.04 0.05 0.05 0.04 0.04 0.03 0.03 0.02 0.02 0.02 0.02 0.03 0.04 0.08 0.13 0.19 0.25 0.32 0.43 0.57 0.69 0.81 0.94 1.08 1.22 1.25 1.22 1.19 1.34 1.55 1.55 1.25 0.93 0.71 0.65 0.68
0.06 0.06 0.06 0.06 0.05 0.05 0.04 0.03 0.03 0.02 0.02 0.03 0.03 0.03 0.03 0.05 0.08 0.13 0.19 0.27 0.36 0.47 0.61 0.75 0.89 1.06 1.25 1.33 1.31 1.19 1.16 1.30 1.42 1.40 1.38 1.14 0.75 0.48